Рублёво

Россия / Московская область     55°47′09″N   37°21′21″E
темп.,
°C
ветер,
м/с
пор.,
м/с
влажн.,
%
обл.,
%
осадки,
мм/ч
давл.,
гПа
погр.,
м
13 апреля, вт
вт1300:00+9вюв4139096 0.0 1027400
03:00+8вюв4119497 0.0 1026289
06:00+8юв3118891 0.0 1025237
09:00+11ююв3966100 0.0 1025284
12:00+17ююв4844100 0.0 1024662
15:00+20ю5836100 0.0 10231625
18:00+18ююв483518 0.0 1022842
21:00+15юв3115196 0.0 1022306
14 апреля, ср
ср1400:00+13ююв414512 0.0 1022429
03:00+11ююв3135936 0.0 1021312
06:00+9ююв29675 0.0 1021204
09:00+13ююв365773 0.0 1020279
12:00+17ююв4638100 0.0 1019902
15:00+18ююв4631100 0.0 10181487
18:00+17ююв363298 0.0 10181085
21:00+14юв254736 0.0 1018114
15 апреля, чт
чт1500:00+12юв2555100 0.0 1017117
03:00+10вюв2258100 0.0 101742
06:00+10в2259100 0.0 101737
09:00+12вюв235098 0.0 1018207
12:00+16вюв3438100 0.0 1017611
15:00+17вюв2335100 0.0 10171074
18:00+16всв1240100 0.0 101756
21:00
16 апреля, пт
пт1600:00+12св51072100 0.0 1017420
03:00+9св51181100 0.0 1018421
06:00+8св51283100 0.0 1019443
09:00+9всв597185 0.0 1020513
12:00+13св6855100 0.0 1020842
15:00+15всв684967 0.0 10201140
18:00+14св695568 0.0 10201250
21:00+10всв6116921 0.0 1024794
17 апреля, сб
сб1700:00+10всв61063100 0.0 1023946
03:00+7св5115851 0.0 1024500
06:00+6св513595 0.0 1025515
09:00+8всв611465 0.0 1026814
12:00+11всв683291 0.0 10271284
15:00+13св68305 0.0 10271661
18:00+12св68333 0.0 10271628
21:00+9св59450 0.0 10291198